Regional Weather Roundup
Issued by NWS Sioux Falls, SD

Home | Current Version | Previous Version | Text Only | Print | Product List | Glossary Off
Versions: 1 2 3 4 5 6 7 8 9 10 11 12 13 14 15 16 17 18 19 20 21 22 23 24 25 26 27 28 29 30 31 32 33 34 35 36 37 38 39 40 41 42 43 44 45 46 47 48 49 50

000
ASUS43 KFSD 300310
RWRFSD

WEATHER ROUNDUP FOR SE SOUTH DAKOTA/SW MINNESOTA/NW IOWA
NATIONAL WEATHER SERVICE SIOUX FALLS SD
1000 PM CDT MON JUN 29 2015

NOTE: "FAIR" INDICATES FEW OR NO CLOUDS BELOW 12,000 FEET WITH NO
SIGNIFICANT WEATHER AND OR OBSTRUCTIONS TO VISIBILITY.


SDZ038>040-050-052>070-300400-
SOUTHEAST SOUTH DAKOTA

CITY           SKY/WX    TMP DP  RH WIND       PRES   REMARKS
BROOKINGS      PTCLDY    70  61  73 CALM      29.92R
CHAMBERLAIN    PTCLDY    81  58  45 CALM      29.92S
HURON          PTCLDY    74  68  81 CALM      29.89R
MADISON        FAIR      70  64  83 NW6       29.91S
MITCHELL       PTCLDY    77  66  68 SW6       29.90S
SIOUX FALLS    MOCLDY    73  63  70 CALM      29.90R
WINNER         FAIR      82  51  34 CALM      29.95S
YANKTON        PTCLDY    75  63  64 W3        29.90R
$$

MNZ071-072-080-081-089-090-097-098-300400-
SOUTHWEST MINNESOTA

CITY           SKY/WX    TMP DP  RH WIND       PRES   REMARKS
FAIRMONT       CLEAR     70  59  68 W7        29.85S
JACKSON        PTCLDY    68  61  77 NW5       29.88S
LUVERNE        PTCLDY    72  63  73 CALM      29.90R
MARSHALL       CLEAR     70  61  73 NW7       29.88R
MONTEVIDEO     CLEAR     70  63  78 N8        29.88R
PIPESTONE      CLEAR     73  64  73 NW3       29.91R
REDWOOD FALLS  PTCLDY    72  63  73 NW9       29.85R
TRACY          CLOUDY    71  64  78 NW6       29.89R
WINDOM         CLEAR     70  63  78 CALM      29.88R
WORTHINGTON    PTCLDY    66  61  82 W7        29.90R
$$

IAZ001>003-012>014-020>022-031-032-NEZ013-014-SDZ071-300400-
NORTHWEST IOWA

CITY           SKY/WX    TMP DP  RH WIND       PRES   REMARKS
CHEROKEE       CLEAR     68  65  88 CALM      29.90R
DENISON        CLOUDY    70  66  88 CALM      29.89R
ESTHERVILLE    PTCLDY    67  61  81 W7        29.87R
LE MARS        CLEAR     70  64  83 CALM      29.91R
ORANGE CITY    CLEAR     66  61  82 CALM      29.91R
SHELDON        CLOUDY    68  68 100 W6        29.89R
SIOUX CITY     CLEAR     70  63  78 CALM      29.91R
SPENCER        MOCLDY    67  63  87 W8        29.89R
STORM LAKE     CLEAR     68  64  88 W9        29.92R
$$

ABBREVIATIONS USED IN REMARKS
   TC - TEMPERATURE IN CELSIUS
  WCI - WIND CHILL INDEX
   HX - HEAT INDEX
  VSB - VISIBILITY




USA.gov is the U.S. government's official web portal to all federal, state and local government web resources and services.